Location: Home
(42.5358°N, 72.7383°W)
Time: 22:17:53
(UTC-05:00)

Vanguard 2 Rocket - Pass Details

Date: 05 December 2021
Orbit: 554 x 3325 km, 32.9° (Epoch: 21 January)

Event Time Altitude Azimuth Distance (km) Brightness Sun altitude
Rises 18:01:18 0° 240° (WSW) 3,186 11.1 -18.4°
Reaches altitude 10° 18:03:28 10° 231° (SW) 2,466 10.1 -18.8°
Maximum altitude 18:08:49 38° 164° (SSE) 1,697 8.2 -19.8°
Enters shadow 18:13:37 22° 114° (ESE) 2,782 8.9 -20.6°
Drops below altitude 10° 18:17:34 10° 102° (ESE) 4,050 - -21.4°
Sets 18:22:10 0° 96° (E) 5,541 - -22.2°
